Time,TemperatureF,DewpointF,PressureIn,WindDirection,WindDirectionDegrees,WindSpeedMPH,WindSpeedGustMPH,Humidity,HourlyPrecipIn,Conditions,Clouds,dailyrainin,SoftwareType,DateUTC
2013-05-06 00:01:00,59.0,48.1,29.52,North,0,0.0,0.0,67,0.00,,,0.00,WUHU216HW,2013-05-06 07:01:00,
2013-05-06 00:06:00,58.9,47.9,29.52,North,0,0.0,0.0,67,0.00,,,0.00,WUHU216HW,2013-05-06 07:06:00,
2013-05-06 00:11:00,58.7,47.7,29.52,North,0,0.0,0.0,67,0.00,,,0.00,WUHU216HW,2013-05-06 07:11:00,
2013-05-06 00:16:00,58.5,47.5,29.52,North,0,0.0,0.0,67,0.00,,,0.00,WUHU216HW,2013-05-06 07:16:00,
2013-05-06 00:21:00,58.1,48.0,29.52,North,0,0.0,0.0,69,0.00,,,0.00,WUHU216HW,2013-05-06 07:21:00,
2013-05-06 00:26:00,58.0,47.9,29.52,North,0,0.0,0.0,69,0.00,,,0.00,WUHU216HW,2013-05-06 07:26:00,
2013-05-06 00:31:00,57.8,47.7,29.52,North,0,0.0,0.0,69,0.00,,,0.00,WUHU216HW,2013-05-06 07:31:00,
2013-05-06 00:36:00,57.4,48.1,29.53,North,0,0.0,0.0,71,0.00,,,0.00,WUHU216HW,2013-05-06 07:36:00,
2013-05-06 00:41:00,57.2,48.6,29.53,North,0,0.0,0.0,73,0.00,,,0.00,WUHU216HW,2013-05-06 07:41:00,
2013-05-06 00:46:00,56.9,47.9,29.53,North,0,0.0,0.0,72,0.00,,,0.00,WUHU216HW,2013-05-06 07:46:00,
2013-05-06 00:51:00,56.7,47.7,29.53,North,0,0.0,0.0,72,0.00,,,0.00,WUHU216HW,2013-05-06 07:51:00,
2013-05-06 00:56:00,56.5,48.0,29.53,North,0,0.0,0.0,73,0.00,,,0.00,WUHU216HW,2013-05-06 07:56:00,
2013-05-06 01:01:00,56.3,47.8,29.53,North,0,0.0,0.0,73,0.00,,,0.00,WUHU216HW,2013-05-06 08:01:00,
2013-05-06 01:06:00,56.0,47.8,29.53,North,0,0.0,0.0,74,0.00,,,0.00,WUHU216HW,2013-05-06 08:06:00,
2013-05-06 01:11:00,55.8,47.3,29.52,North,0,0.0,0.0,73,0.00,,,0.00,WUHU216HW,2013-05-06 08:11:00,
2013-05-06 01:16:00,55.8,47.6,29.53,North,0,0.0,0.0,74,0.00,,,0.00,WUHU216HW,2013-05-06 08:16:00,
2013-05-06 01:21:00,55.4,48.0,29.53,North,0,0.0,0.0,76,0.00,,,0.00,WUHU216HW,2013-05-06 08:21:00,
2013-05-06 01:26:00,55.3,47.8,29.53,North,0,0.0,0.0,76,0.00,,,0.00,WUHU216HW,2013-05-06 08:26:00,
2013-05-06 01:31:00,55.1,47.6,29.53,North,0,0.0,0.0,76,0.00,,,0.00,WUHU216HW,2013-05-06 08:31:00,
2013-05-06 01:36:00,54.9,47.4,29.53,North,0,0.0,0.0,76,0.00,,,0.00,WUHU216HW,2013-05-06 08:36:00,
2013-05-06 01:41:00,54.9,47.1,29.53,North,0,0.0,0.0,75,0.00,,,0.00,WUHU216HW,2013-05-06 08:41:00,
2013-05-06 01:46:00,54.7,47.3,29.52,North,0,0.0,0.0,76,0.00,,,0.00,WUHU216HW,2013-05-06 08:46:00,
2013-05-06 01:51:00,54.5,46.8,29.53,North,0,0.0,0.0,75,0.00,,,0.00,WUHU216HW,2013-05-06 08:51:00,
2013-05-06 01:56:00,54.4,46.6,29.52,North,0,0.0,0.0,75,0.00,,,0.00,WUHU216HW,2013-05-06 08:56:00,
2013-05-06 02:01:00,54.4,46.6,29.52,North,0,0.0,0.0,75,0.00,,,0.00,WUHU216HW,2013-05-06 09:01:00,
2013-05-06 02:06:00,54.2,46.1,29.52,North,0,0.0,0.0,74,0.00,,,0.00,WUHU216HW,2013-05-06 09:06:00,
2013-05-06 02:11:00,54.0,46.3,29.52,North,0,0.0,0.0,75,0.00,,,0.00,WUHU216HW,2013-05-06 09:11:00,
2013-05-06 02:16:00,53.8,46.1,29.53,North,0,0.0,0.0,75,0.00,,,0.00,WUHU216HW,2013-05-06 09:16:00,
2013-05-06 02:21:00,53.6,45.9,29.53,North,0,0.0,0.0,75,0.00,,,0.00,WUHU216HW,2013-05-06 09:21:00,
2013-05-06 02:26:00,53.3,45.9,29.52,North,0,0.0,0.0,76,0.00,,,0.00,WUHU216HW,2013-05-06 09:26:00,
2013-05-06 02:31:00,53.1,45.7,29.52,North,0,0.0,0.0,76,0.00,,,0.00,WUHU216HW,2013-05-06 09:31:00,
2013-05-06 02:36:00,52.9,45.5,29.52,North,0,0.0,0.0,76,0.00,,,0.00,WUHU216HW,2013-05-06 09:36:00,
2013-05-06 02:41:00,52.9,45.5,29.52,North,0,0.0,0.0,76,0.00,,,0.00,WUHU216HW,2013-05-06 09:41:00,
2013-05-06 02:46:00,52.7,45.4,29.52,North,0,0.0,0.0,76,0.00,,,0.00,WUHU216HW,2013-05-06 09:46:00,
2013-05-06 02:51:00,52.6,45.9,29.52,North,0,0.0,0.0,78,0.00,,,0.00,WUHU216HW,2013-05-06 09:51:00,
2013-05-06 02:56:00,52.4,45.4,29.52,North,0,0.0,0.0,77,0.00,,,0.00,WUHU216HW,2013-05-06 09:56:00,
2013-05-06 03:01:00,52.2,45.5,29.52,North,0,0.0,0.0,78,0.00,,,0.00,WUHU216HW,2013-05-06 10:01:00,
2013-05-06 03:06:00,52.2,45.5,29.52,North,0,0.0,0.0,78,0.00,,,0.00,WUHU216HW,2013-05-06 10:06:00,
2013-05-06 03:11:00,51.8,45.5,29.52,North,0,0.0,0.0,79,0.00,,,0.00,WUHU216HW,2013-05-06 10:11:00,
2013-05-06 03:16:00,51.7,45.0,29.52,North,0,0.0,0.0,78,0.00,,,0.00,WUHU216HW,2013-05-06 10:16:00,
2013-05-06 03:21:00,51.5,45.2,29.52,North,0,0.0,0.0,79,0.00,,,0.00,WUHU216HW,2013-05-06 10:21:00,
2013-05-06 03:26:00,51.5,45.2,29.52,North,0,0.0,0.0,79,0.00,,,0.00,WUHU216HW,2013-05-06 10:26:00,
2013-05-06 03:31:00,51.1,45.2,29.52,North,0,0.0,0.0,80,0.00,,,0.00,WUHU216HW,2013-05-06 10:31:00,
2013-05-06 03:36:00,50.9,44.6,29.52,North,0,0.0,0.0,79,0.00,,,0.00,WUHU216HW,2013-05-06 10:36:00,
2013-05-06 03:41:00,50.9,44.6,29.52,North,0,0.0,0.0,79,0.00,,,0.00,WUHU216HW,2013-05-06 10:41:00,
2013-05-06 03:46:00,50.8,44.1,29.52,North,0,0.0,0.0,78,0.00,,,0.00,WUHU216HW,2013-05-06 10:46:00,
2013-05-06 03:51:00,50.8,44.5,29.52,North,0,0.0,0.0,79,0.00,,,0.00,WUHU216HW,2013-05-06 10:51:00,
2013-05-06 03:56:00,50.6,44.3,29.52,North,0,0.0,0.0,79,0.00,,,0.00,WUHU216HW,2013-05-06 10:56:00,
2013-05-06 04:01:00,50.4,44.1,29.52,North,0,0.0,0.0,79,0.00,,,0.00,WUHU216HW,2013-05-06 11:01:00,
2013-05-06 04:06:00,50.2,44.3,29.52,North,0,0.0,0.0,80,0.00,,,0.00,WUHU216HW,2013-05-06 11:06:00,
2013-05-06 04:11:00,50.0,44.1,29.52,North,0,0.0,0.0,80,0.00,,,0.00,WUHU216HW,2013-05-06 11:11:00,
2013-05-06 04:16:00,49.9,43.9,29.52,North,0,0.0,0.0,80,0.00,,,0.00,WUHU216HW,2013-05-06 11:16:00,
2013-05-06 04:21:00,49.9,43.6,29.52,North,0,0.0,0.0,79,0.00,,,0.00,WUHU216HW,2013-05-06 11:21:00,
2013-05-06 04:26:00,49.7,43.7,29.52,North,0,0.0,0.0,80,0.00,,,0.00,WUHU216HW,2013-05-06 11:26:00,
2013-05-06 04:31:00,49.7,43.4,29.52,North,0,0.0,0.0,79,0.00,,,0.00,WUHU216HW,2013-05-06 11:31:00,
2013-05-06 04:36:00,49.5,43.6,29.53,North,0,0.0,0.0,80,0.00,,,0.00,WUHU216HW,2013-05-06 11:36:00,
2013-05-06 04:41:00,49.5,44.2,29.52,North,0,0.0,0.0,82,0.00,,,0.00,WUHU216HW,2013-05-06 11:41:00,
2013-05-06 04:46:00,49.3,44.0,29.52,North,0,0.0,0.0,82,0.00,,,0.00,WUHU216HW,2013-05-06 11:46:00,
2013-05-06 04:51:00,49.3,43.7,29.52,North,0,0.0,0.0,81,0.00,,,0.00,WUHU216HW,2013-05-06 11:51:00,
2013-05-06 04:56:00,49.1,43.2,29.53,North,0,0.0,0.0,80,0.00,,,0.00,WUHU216HW,2013-05-06 11:56:00,
2013-05-06 05:01:00,49.0,43.0,29.53,North,0,0.0,0.0,80,0.00,,,0.00,WUHU216HW,2013-05-06 12:01:00,
2013-05-06 05:06:00,49.0,42.7,29.53,North,0,0.0,0.0,79,0.00,,,0.00,WUHU216HW,2013-05-06 12:06:00,
2013-05-06 05:11:00,48.8,42.8,29.53,North,0,0.0,0.0,80,0.00,,,0.00,WUHU216HW,2013-05-06 12:11:00,
2013-05-06 05:16:00,48.6,42.7,29.53,North,0,0.0,0.0,80,0.00,,,0.00,WUHU216HW,2013-05-06 12:16:00,
2013-05-06 05:21:00,48.6,42.7,29.53,North,0,0.0,0.0,80,0.00,,,0.00,WUHU216HW,2013-05-06 12:21:00,
2013-05-06 05:26:00,48.4,42.5,29.53,North,0,0.0,0.0,80,0.00,,,0.00,WUHU216HW,2013-05-06 12:26:00,
2013-05-06 05:31:00,48.4,42.9,29.53,North,0,0.0,0.0,81,0.00,,,0.00,WUHU216HW,2013-05-06 12:31:00,
2013-05-06 05:36:00,48.2,42.3,29.53,North,0,0.0,0.0,80,0.00,,,0.00,WUHU216HW,2013-05-06 12:36:00,
2013-05-06 05:41:00,48.2,42.3,29.53,North,0,0.0,0.0,80,0.00,,,0.00,WUHU216HW,2013-05-06 12:41:00,
2013-05-06 05:46:00,48.2,42.3,29.53,North,0,0.0,0.0,80,0.00,,,0.00,WUHU216HW,2013-05-06 12:46:00,
2013-05-06 05:51:00,48.1,42.1,29.53,North,0,0.0,0.0,80,0.00,,,0.00,WUHU216HW,2013-05-06 12:51:00,
2013-05-06 05:56:00,48.2,42.3,29.53,North,0,0.0,0.0,80,0.00,,,0.00,WUHU216HW,2013-05-06 12:56:00,
2013-05-06 06:01:00,48.2,42.3,29.53,North,0,0.0,0.0,80,0.00,,,0.00,WUHU216HW,2013-05-06 13:01:00,
2013-05-06 06:06:00,48.1,42.1,29.54,North,0,0.0,0.0,80,0.00,,,0.00,WUHU216HW,2013-05-06 13:06:00,
2013-05-06 06:11:00,48.1,42.1,29.54,North,0,0.0,0.0,80,0.00,,,0.00,WUHU216HW,2013-05-06 13:11:00,
2013-05-06 06:16:00,48.2,42.3,29.54,North,0,0.0,0.0,80,0.00,,,0.00,WUHU216HW,2013-05-06 13:16:00,
2013-05-06 06:21:00,48.4,42.9,29.54,North,0,0.0,0.0,81,0.00,,,0.00,WUHU216HW,2013-05-06 13:21:00,
2013-05-06 06:26:00,48.6,43.0,29.54,North,0,0.0,0.0,81,0.00,,,0.00,WUHU216HW,2013-05-06 13:26:00,
2013-05-06 06:31:00,49.0,43.7,29.54,North,0,0.0,0.0,82,0.00,,,0.00,WUHU216HW,2013-05-06 13:31:00,
2013-05-06 06:36:00,49.1,43.8,29.54,North,0,0.0,0.0,82,0.00,,,0.00,WUHU216HW,2013-05-06 13:36:00,
2013-05-06 06:41:00,49.5,44.2,29.54,North,0,0.0,0.0,82,0.00,,,0.00,WUHU216HW,2013-05-06 13:41:00,
2013-05-06 06:46:00,50.0,44.7,29.54,North,0,0.0,0.0,82,0.00,,,0.00,WUHU216HW,2013-05-06 13:46:00,
2013-05-06 06:51:00,50.8,45.5,29.54,North,0,0.0,0.0,82,0.00,,,0.00,WUHU216HW,2013-05-06 13:51:00,
2013-05-06 06:56:00,51.5,45.8,29.54,North,0,0.0,0.0,81,0.00,,,0.00,WUHU216HW,2013-05-06 13:56:00,
2013-05-06 07:01:00,52.0,46.1,29.55,North,0,0.0,0.0,80,0.00,,,0.00,WUHU216HW,2013-05-06 14:01:00,
2013-05-06 07:06:00,52.6,46.3,29.55,North,0,0.0,0.0,79,0.00,,,0.00,WUHU216HW,2013-05-06 14:06:00,
2013-05-06 07:11:00,53.5,46.8,29.54,North,0,0.0,0.0,78,0.00,,,0.00,WUHU216HW,2013-05-06 14:11:00,
2013-05-06 07:16:00,54.2,47.5,29.54,North,0,0.0,0.0,78,0.00,,,0.00,WUHU216HW,2013-05-06 14:16:00,
2013-05-06 07:21:00,54.7,48.3,29.54,North,0,0.0,0.0,79,0.00,,,0.00,WUHU216HW,2013-05-06 14:21:00,
2013-05-06 07:26:00,55.4,48.6,29.54,North,0,0.0,0.0,78,0.00,,,0.00,WUHU216HW,2013-05-06 14:26:00,
2013-05-06 07:31:00,56.2,48.6,29.54,North,0,0.0,0.0,76,0.00,,,0.00,WUHU216HW,2013-05-06 14:31:00,
2013-05-06 07:36:00,56.7,49.1,29.55,North,0,0.0,0.0,76,0.00,,,0.00,WUHU216HW,2013-05-06 14:36:00,
2013-05-06 07:41:00,57.4,48.8,29.55,North,0,0.0,0.0,73,0.00,,,0.00,WUHU216HW,2013-05-06 14:41:00,
2013-05-06 07:46:00,58.0,49.0,29.55,North,0,0.0,0.0,72,0.00,,,0.00,WUHU216HW,2013-05-06 14:46:00,
2013-05-06 07:51:00,58.7,49.0,29.55,North,0,0.0,0.0,70,0.00,,,0.00,WUHU216HW,2013-05-06 14:51:00,
2013-05-06 07:56:00,59.2,49.5,29.55,North,0,0.0,0.0,70,0.00,,,0.00,WUHU216HW,2013-05-06 14:56:00,
2013-05-06 08:01:00,59.9,49.8,29.55,North,0,0.0,0.0,69,0.00,,,0.00,WUHU216HW,2013-05-06 15:01:00,
2013-05-06 08:06:00,60.7,49.7,29.55,North,0,0.0,0.0,67,0.00,,,0.00,WUHU216HW,2013-05-06 15:06:00,
2013-05-06 08:11:00,61.2,50.2,29.55,North,0,0.0,0.0,67,0.00,,,0.00,WUHU216HW,2013-05-06 15:11:00,
2013-05-06 08:16:00,61.6,49.7,29.55,North,0,0.0,0.0,65,0.00,,,0.00,WUHU216HW,2013-05-06 15:16:00,
2013-05-06 08:21:00,61.9,49.6,29.55,North,0,0.0,0.0,64,0.00,,,0.00,WUHU216HW,2013-05-06 15:21:00,
2013-05-06 08:26:00,62.3,49.5,29.55,North,0,0.0,0.0,63,0.00,,,0.00,WUHU216HW,2013-05-06 15:26:00,
2013-05-06 08:31:00,62.8,50.1,29.55,North,0,0.0,0.0,63,0.00,,,0.00,WUHU216HW,2013-05-06 15:31:00,
2013-05-06 08:36:00,63.4,50.5,29.55,North,0,0.0,0.0,63,0.00,,,0.00,WUHU216HW,2013-05-06 15:36:00,
2013-05-06 08:41:00,63.7,50.1,29.55,North,0,0.0,0.0,61,0.00,,,0.00,WUHU216HW,2013-05-06 15:41:00,
2013-05-06 08:46:00,64.1,49.9,29.55,North,0,0.0,0.0,60,0.00,,,0.00,WUHU216HW,2013-05-06 15:46:00,
2013-05-06 08:51:00,64.6,51.3,29.55,North,0,0.0,0.0,62,0.00,,,0.00,WUHU216HW,2013-05-06 15:51:00,
2013-05-06 08:56:00,65.2,51.4,29.55,North,0,0.0,0.0,61,0.00,,,0.00,WUHU216HW,2013-05-06 15:56:00,
2013-05-06 09:01:00,65.9,49.7,29.55,North,0,0.0,0.0,56,0.00,,,0.00,WUHU216HW,2013-05-06 16:01:00,
2013-05-06 09:06:00,65.9,47.8,29.55,North,0,0.0,0.0,52,0.00,,,0.00,WUHU216HW,2013-05-06 16:06:00,
2013-05-06 09:11:00,66.4,49.8,29.55,North,0,0.0,0.0,55,0.00,,,0.00,WUHU216HW,2013-05-06 16:11:00,
2013-05-06 09:16:00,66.8,49.2,29.55,North,0,0.0,0.0,53,0.00,,,0.00,WUHU216HW,2013-05-06 16:16:00,
2013-05-06 09:21:00,67.0,49.2,29.55,North,0,0.0,0.0,53,0.00,,,0.00,WUHU216HW,2013-05-06 16:21:00,
2013-05-06 09:26:00,67.3,50.0,29.55,North,0,0.0,0.0,54,0.00,,,0.00,WUHU216HW,2013-05-06 16:26:00,
2013-05-06 09:31:00,67.7,50.4,29.55,North,0,0.0,0.0,54,0.00,,,0.00,WUHU216HW,2013-05-06 16:31:00,
2013-05-06 09:36:00,68.6,51.8,29.55,North,0,0.0,0.0,55,0.00,,,0.00,WUHU216HW,2013-05-06 16:36:00,
2013-05-06 09:41:00,68.9,50.1,29.55,North,0,0.0,0.0,51,0.00,,,0.00,WUHU216HW,2013-05-06 16:41:00,
2013-05-06 09:46:00,69.3,50.0,29.55,North,0,0.0,0.0,50,0.00,,,0.00,WUHU216HW,2013-05-06 16:46:00,
2013-05-06 09:51:00,69.7,49.1,29.55,North,0,0.0,0.0,48,0.00,,,0.00,WUHU216HW,2013-05-06 16:51:00,
2013-05-06 09:56:00,69.8,49.2,29.55,North,0,0.0,0.0,48,0.00,,,0.00,WUHU216HW,2013-05-06 16:56:00,
2013-05-06 10:01:00,70.0,50.6,29.55,North,0,0.0,0.0,50,0.00,,,0.00,WUHU216HW,2013-05-06 17:01:00,
2013-05-06 10:06:00,70.6,49.2,29.55,North,0,0.0,0.0,47,0.00,,,0.00,WUHU216HW,2013-05-06 17:06:00,
2013-05-06 10:11:00,70.9,50.8,29.55,North,0,0.0,0.0,49,0.00,,,0.00,WUHU216HW,2013-05-06 17:11:00,
2013-05-06 10:16:00,71.5,50.7,29.55,North,0,0.0,0.0,48,0.00,,,0.00,WUHU216HW,2013-05-06 17:16:00,
2013-05-06 10:21:00,72.0,50.6,29.54,North,0,0.0,0.0,47,0.00,,,0.00,WUHU216HW,2013-05-06 17:21:00,
2013-05-06 10:26:00,72.5,50.5,29.54,North,0,0.0,0.0,46,0.00,,,0.00,WUHU216HW,2013-05-06 17:26:00,
2013-05-06 10:31:00,73.1,49.8,29.54,North,0,0.0,0.0,44,0.00,,,0.00,WUHU216HW,2013-05-06 17:31:00,
2013-05-06 10:36:00,73.3,48.7,29.54,North,0,0.0,0.0,42,0.00,,,0.00,WUHU216HW,2013-05-06 17:36:00,
2013-05-06 10:41:00,73.4,50.0,29.54,North,0,0.0,0.0,44,0.00,,,0.00,WUHU216HW,2013-05-06 17:41:00,
2013-05-06 10:46:00,73.8,50.4,29.54,North,0,0.0,0.0,44,0.00,,,0.00,WUHU216HW,2013-05-06 17:46:00,
2013-05-06 10:51:00,74.3,49.7,29.54,North,0,0.0,0.0,42,0.00,,,0.00,WUHU216HW,2013-05-06 17:51:00,
2013-05-06 10:56:00,74.7,52.5,29.54,North,0,0.0,0.0,46,0.00,,,0.00,WUHU216HW,2013-05-06 17:56:00,
2013-05-06 11:01:00,75.2,53.7,29.54,North,0,0.0,0.0,47,0.00,,,0.00,WUHU216HW,2013-05-06 18:01:00,
2013-05-06 11:06:00,75.6,53.9,29.54,North,0,0.0,0.0,47,0.00,,,0.00,WUHU216HW,2013-05-06 18:06:00,
2013-05-06 11:11:00,76.0,53.6,29.54,North,0,0.0,0.0,46,0.00,,,0.00,WUHU216HW,2013-05-06 18:11:00,
2013-05-06 11:16:00,76.5,53.6,29.54,North,0,0.0,0.0,45,0.00,,,0.00,WUHU216HW,2013-05-06 18:16:00,
2013-05-06 11:21:00,76.7,53.6,29.54,North,0,0.0,0.0,45,0.00,,,0.00,WUHU216HW,2013-05-06 18:21:00,
2013-05-06 11:26:00,76.7,53.6,29.53,North,0,0.0,0.0,45,0.00,,,0.00,WUHU216HW,2013-05-06 18:26:00,
2013-05-06 11:31:00,77.2,54.8,29.53,North,0,0.0,0.0,46,0.00,,,0.00,WUHU216HW,2013-05-06 18:31:00,
2013-05-06 11:36:00,77.4,51.8,29.53,North,0,0.0,0.0,41,0.00,,,0.00,WUHU216HW,2013-05-06 18:36:00,
2013-05-06 11:41:00,77.2,51.8,29.53,North,0,0.0,0.0,41,0.00,,,0.00,WUHU216HW,2013-05-06 18:41:00,
2013-05-06 11:46:00,77.4,53.1,29.53,North,0,0.0,0.0,43,0.00,,,0.00,WUHU216HW,2013-05-06 18:46:00,
2013-05-06 11:51:00,77.9,53.6,29.53,North,0,0.0,0.0,43,0.00,,,0.00,WUHU216HW,2013-05-06 18:51:00,
2013-05-06 11:56:00,78.5,52.2,29.53,North,0,0.0,0.0,40,0.00,,,0.00,WUHU216HW,2013-05-06 18:56:00,
2013-05-06 12:01:00,78.5,53.5,29.52,North,0,0.0,0.0,42,0.00,,,0.00,WUHU216HW,2013-05-06 19:01:00,
2013-05-06 12:06:00,78.8,53.2,29.52,North,0,0.0,0.0,41,0.00,,,0.00,WUHU216HW,2013-05-06 19:06:00,
2013-05-06 12:11:00,79.4,53.6,29.52,North,0,0.0,0.0,41,0.00,,,0.00,WUHU216HW,2013-05-06 19:11:00,
2013-05-06 12:16:00,79.2,50.6,29.52,North,0,0.0,0.0,37,0.00,,,0.00,WUHU216HW,2013-05-06 19:16:00,
2013-05-06 12:21:00,79.4,53.0,29.52,North,0,0.0,0.0,40,0.00,,,0.00,WUHU216HW,2013-05-06 19:21:00,
2013-05-06 12:26:00,79.9,54.2,29.52,North,0,0.0,0.0,41,0.00,,,0.00,WUHU216HW,2013-05-06 19:26:00,
2013-05-06 12:31:00,80.3,53.8,29.52,North,0,0.0,0.0,40,0.00,,,0.00,WUHU216HW,2013-05-06 19:31:00,
2013-05-06 12:36:00,80.1,52.9,29.52,North,0,0.0,0.0,39,0.00,,,0.00,WUHU216HW,2013-05-06 19:36:00,
2013-05-06 12:41:00,80.6,54.8,29.52,North,0,0.0,0.0,41,0.00,,,0.00,WUHU216HW,2013-05-06 19:41:00,
2013-05-06 12:46:00,81.0,53.7,29.52,North,0,0.0,0.0,39,0.00,,,0.00,WUHU216HW,2013-05-06 19:46:00,
2013-05-06 12:51:00,81.4,55.4,29.52,North,0,0.0,0.0,41,0.00,,,0.00,WUHU216HW,2013-05-06 19:51:00,
2013-05-06 12:56:00,82.1,55.4,29.51,North,0,0.0,0.0,40,0.00,,,0.00,WUHU216HW,2013-05-06 19:56:00,
2013-05-06 13:01:00,82.3,54.8,29.51,North,0,0.0,0.0,39,0.00,,,0.00,WUHU216HW,2013-05-06 20:01:00,
2013-05-06 13:06:00,82.4,55.0,29.51,North,0,0.0,0.0,39,0.00,,,0.00,WUHU216HW,2013-05-06 20:06:00,
2013-05-06 13:11:00,82.8,55.4,29.51,North,0,0.0,0.0,39,0.00,,,0.00,WUHU216HW,2013-05-06 20:11:00,
2013-05-06 13:16:00,83.2,56.4,29.51,North,0,0.0,0.0,40,0.00,,,0.00,WUHU216HW,2013-05-06 20:16:00,
2013-05-06 13:21:00,83.7,56.2,29.51,North,0,0.0,0.0,39,0.00,,,0.00,WUHU216HW,2013-05-06 20:21:00,
2013-05-06 13:26:00,84.2,55.8,29.51,North,0,0.0,0.0,38,0.00,,,0.00,WUHU216HW,2013-05-06 20:26:00,
2013-05-06 13:31:00,84.2,55.8,29.51,North,0,0.0,0.0,38,0.00,,,0.00,WUHU216HW,2013-05-06 20:31:00,
2013-05-06 13:36:00,84.2,55.8,29.50,North,0,0.0,0.0,38,0.00,,,0.00,WUHU216HW,2013-05-06 20:36:00,
2013-05-06 13:41:00,84.4,56.0,29.50,North,0,0.0,0.0,38,0.00,,,0.00,WUHU216HW,2013-05-06 20:41:00,
2013-05-06 13:46:00,84.8,56.4,29.50,North,0,0.0,0.0,38,0.00,,,0.00,WUHU216HW,2013-05-06 20:46:00,
2013-05-06 13:51:00,85.1,56.6,29.50,North,0,0.0,0.0,38,0.00,,,0.00,WUHU216HW,2013-05-06 20:51:00,
2013-05-06 13:56:00,85.5,57.0,29.50,North,0,0.0,0.0,38,0.00,,,0.00,WUHU216HW,2013-05-06 20:56:00,
2013-05-06 14:01:00,86.0,57.4,29.50,North,0,0.0,0.0,38,0.00,,,0.00,WUHU216HW,2013-05-06 21:01:00,
2013-05-06 14:06:00,86.6,55.5,29.50,North,0,0.0,0.0,35,0.00,,,0.00,WUHU216HW,2013-05-06 21:06:00,
2013-05-06 14:11:00,86.9,55.8,29.50,North,0,0.0,0.0,35,0.00,,,0.00,WUHU216HW,2013-05-06 21:11:00,
2013-05-06 14:16:00,86.8,55.7,29.50,North,0,0.0,0.0,35,0.00,,,0.00,WUHU216HW,2013-05-06 21:16:00,
2013-05-06 14:21:00,86.8,57.3,29.50,North,0,0.0,0.0,37,0.00,,,0.00,WUHU216HW,2013-05-06 21:21:00,
2013-05-06 14:26:00,86.9,58.2,29.50,North,0,0.0,0.0,38,0.00,,,0.00,WUHU216HW,2013-05-06 21:26:00,
2013-05-06 14:31:00,87.1,56.8,29.49,North,0,0.0,0.0,36,0.00,,,0.00,WUHU216HW,2013-05-06 21:31:00,
2013-05-06 14:36:00,87.1,58.4,29.49,North,0,0.0,0.0,38,0.00,,,0.00,WUHU216HW,2013-05-06 21:36:00,
2013-05-06 14:41:00,87.1,58.4,29.49,North,0,0.0,0.0,38,0.00,,,0.00,WUHU216HW,2013-05-06 21:41:00,
2013-05-06 14:46:00,87.1,58.4,29.49,North,0,0.0,0.0,38,0.00,,,0.00,WUHU216HW,2013-05-06 21:46:00,
2013-05-06 14:51:00,87.1,58.4,29.49,North,0,0.0,0.0,38,0.00,,,0.00,WUHU216HW,2013-05-06 21:51:00,
2013-05-06 14:56:00,87.3,58.6,29.49,North,0,0.0,0.0,38,0.00,,,0.00,WUHU216HW,2013-05-06 21:56:00,
2013-05-06 15:01:00,87.3,57.0,29.49,North,0,0.0,0.0,36,0.00,,,0.00,WUHU216HW,2013-05-06 22:01:00,
2013-05-06 15:06:00,87.1,55.2,29.49,North,0,0.0,0.0,34,0.00,,,0.00,WUHU216HW,2013-05-06 22:06:00,
2013-05-06 15:11:00,86.9,54.3,29.48,North,0,0.0,0.0,33,0.00,,,0.00,WUHU216HW,2013-05-06 22:11:00,
2013-05-06 15:16:00,86.8,55.7,29.48,North,0,0.0,0.0,35,0.00,,,0.00,WUHU216HW,2013-05-06 22:16:00,
2013-05-06 15:21:00,86.9,55.1,29.48,North,0,0.0,0.0,34,0.00,,,0.00,WUHU216HW,2013-05-06 22:21:00,
2013-05-06 15:26:00,87.1,54.4,29.48,North,0,0.0,0.0,33,0.00,,,0.00,WUHU216HW,2013-05-06 22:26:00,
2013-05-06 15:31:00,86.9,54.3,29.48,North,0,0.0,0.0,33,0.00,,,0.00,WUHU216HW,2013-05-06 22:31:00,
2013-05-06 15:36:00,86.8,55.7,29.48,North,0,0.0,0.0,35,0.00,,,0.00,WUHU216HW,2013-05-06 22:36:00,
2013-05-06 15:41:00,86.8,55.7,29.48,North,0,0.0,0.0,35,0.00,,,0.00,WUHU216HW,2013-05-06 22:41:00,
2013-05-06 15:46:00,86.6,55.5,29.48,North,0,0.0,0.0,35,0.00,,,0.00,WUHU216HW,2013-05-06 22:46:00,
2013-05-06 15:51:00,86.4,53.0,29.47,North,0,0.0,0.0,32,0.00,,,0.00,WUHU216HW,2013-05-06 22:51:00,
2013-05-06 15:56:00,86.6,53.9,29.47,North,0,0.0,0.0,33,0.00,,,0.00,WUHU216HW,2013-05-06 22:56:00,
2013-05-06 16:01:00,86.4,54.6,29.47,North,0,0.0,0.0,34,0.00,,,0.00,WUHU216HW,2013-05-06 23:01:00,
2013-05-06 16:06:00,86.4,54.6,29.47,North,0,0.0,0.0,34,0.00,,,0.00,WUHU216HW,2013-05-06 23:06:00,
2013-05-06 16:11:00,86.0,52.8,29.47,North,0,0.0,0.0,32,0.00,,,0.00,WUHU216HW,2013-05-06 23:11:00,
2013-05-06 16:16:00,86.0,52.8,29.47,North,0,0.0,0.0,32,0.00,,,0.00,WUHU216HW,2013-05-06 23:16:00,
2013-05-06 16:21:00,85.9,53.4,29.47,North,0,0.0,0.0,33,0.00,,,0.00,WUHU216HW,2013-05-06 23:21:00,
2013-05-06 16:26:00,85.9,54.1,29.47,North,0,0.0,0.0,34,0.00,,,0.00,WUHU216HW,2013-05-06 23:26:00,
2013-05-06 16:31:00,86.0,54.3,29.47,North,0,0.0,0.0,34,0.00,,,0.00,WUHU216HW,2013-05-06 23:31:00,
2013-05-06 16:36:00,86.0,52.8,29.47,North,0,0.0,0.0,32,0.00,,,0.00,WUHU216HW,2013-05-06 23:36:00,
2013-05-06 16:41:00,85.5,52.2,29.47,North,0,0.0,0.0,32,0.00,,,0.00,WUHU216HW,2013-05-06 23:41:00,
2013-05-06 16:46:00,85.3,53.6,29.47,North,0,0.0,0.0,34,0.00,,,0.00,WUHU216HW,2013-05-06 23:46:00,
2013-05-06 16:51:00,85.5,53.0,29.47,North,0,0.0,0.0,33,0.00,,,0.00,WUHU216HW,2013-05-06 23:51:00,
2013-05-06 16:56:00,85.3,52.8,29.46,North,0,0.0,0.0,33,0.00,,,0.00,WUHU216HW,2013-05-06 23:56:00,
2013-05-06 17:01:00,85.1,52.7,29.47,North,0,0.0,0.0,33,0.00,,,0.00,WUHU216HW,2013-05-07 00:01:00,
2013-05-06 17:06:00,84.6,53.8,29.47,North,0,0.0,0.0,35,0.00,,,0.00,WUHU216HW,2013-05-07 00:06:00,
2013-05-06 17:11:00,84.6,53.0,29.47,North,0,0.0,0.0,34,0.00,,,0.00,WUHU216HW,2013-05-07 00:11:00,
2013-05-06 17:16:00,84.6,52.2,29.47,North,0,0.0,0.0,33,0.00,,,0.00,WUHU216HW,2013-05-07 00:16:00,
2013-05-06 17:21:00,84.4,52.0,29.47,North,0,0.0,0.0,33,0.00,,,0.00,WUHU216HW,2013-05-07 00:21:00,
2013-05-06 17:26:00,83.9,50.8,29.47,North,0,0.0,0.0,32,0.00,,,0.00,WUHU216HW,2013-05-07 00:26:00,
2013-05-06 17:31:00,83.9,50.8,29.47,North,0,0.0,0.0,32,0.00,,,0.00,WUHU216HW,2013-05-07 00:31:00,
2013-05-06 17:36:00,83.5,50.4,29.47,North,0,0.0,0.0,32,0.00,,,0.00,WUHU216HW,2013-05-07 00:36:00,
2013-05-06 17:41:00,83.3,51.0,29.47,North,0,0.0,0.0,33,0.00,,,0.00,WUHU216HW,2013-05-07 00:41:00,
2013-05-06 17:46:00,83.3,51.8,29.47,North,0,0.0,0.0,34,0.00,,,0.00,WUHU216HW,2013-05-07 00:46:00,
2013-05-06 17:51:00,83.3,51.8,29.46,North,0,0.0,0.0,34,0.00,,,0.00,WUHU216HW,2013-05-07 00:51:00,
2013-05-06 17:56:00,83.0,51.6,29.46,North,0,0.0,0.0,34,0.00,,,0.00,WUHU216HW,2013-05-07 00:56:00,
2013-05-06 18:01:00,82.6,50.4,29.47,North,0,0.0,0.0,33,0.00,,,0.00,WUHU216HW,2013-05-07 01:01:00,
2013-05-06 18:06:00,82.3,51.7,29.47,North,0,0.0,0.0,35,0.00,,,0.00,WUHU216HW,2013-05-07 01:06:00,
2013-05-06 18:11:00,82.3,50.1,29.47,North,0,0.0,0.0,33,0.00,,,0.00,WUHU216HW,2013-05-07 01:11:00,
2013-05-06 18:16:00,81.7,49.7,29.47,North,0,0.0,0.0,33,0.00,,,0.00,WUHU216HW,2013-05-07 01:16:00,
2013-05-06 18:21:00,81.5,48.7,29.47,North,0,0.0,0.0,32,0.00,,,0.00,WUHU216HW,2013-05-07 01:21:00,
2013-05-06 18:26:00,81.4,48.6,29.47,North,0,0.0,0.0,32,0.00,,,0.00,WUHU216HW,2013-05-07 01:26:00,
2013-05-06 18:31:00,81.0,48.2,29.47,North,0,0.0,0.0,32,0.00,,,0.00,WUHU216HW,2013-05-07 01:31:00,
2013-05-06 18:36:00,81.0,49.1,29.47,North,0,0.0,0.0,33,0.00,,,0.00,WUHU216HW,2013-05-07 01:36:00,
2013-05-06 18:41:00,81.2,50.0,29.47,North,0,0.0,0.0,34,0.00,,,0.00,WUHU216HW,2013-05-07 01:41:00,
2013-05-06 18:46:00,80.8,49.7,29.47,North,0,0.0,0.0,34,0.00,,,0.00,WUHU216HW,2013-05-07 01:46:00,
2013-05-06 18:51:00,80.6,50.3,29.47,North,0,0.0,0.0,35,0.00,,,0.00,WUHU216HW,2013-05-07 01:51:00,
2013-05-06 18:57:00,80.3,49.2,29.47,North,0,0.0,0.0,34,0.00,,,0.00,WUHU216HW,2013-05-07 01:57:00,
2013-05-06 19:02:00,79.9,51.2,29.46,North,0,0.0,0.0,37,0.00,,,0.00,WUHU216HW,2013-05-07 02:02:00,
2013-05-06 19:07:00,79.6,50.9,29.46,North,0,0.0,0.0,37,0.00,,,0.00,WUHU216HW,2013-05-07 02:07:00,
2013-05-06 19:12:00,78.8,51.0,29.46,North,0,0.0,0.0,38,0.00,,,0.00,WUHU216HW,2013-05-07 02:12:00,
2013-05-06 19:17:00,78.3,52.1,29.46,North,0,0.0,0.0,40,0.00,,,0.00,WUHU216HW,2013-05-07 02:17:00,
2013-05-06 19:22:00,77.8,52.2,29.47,North,0,0.0,0.0,41,0.00,,,0.00,WUHU216HW,2013-05-07 02:22:00,
2013-05-06 19:27:00,77.2,52.3,29.47,North,0,0.0,0.0,42,0.00,,,0.00,WUHU216HW,2013-05-07 02:27:00,
2013-05-06 19:32:00,76.7,52.5,29.47,North,0,0.0,0.0,43,0.00,,,0.00,WUHU216HW,2013-05-07 02:32:00,
2013-05-06 19:37:00,76.0,50.6,29.47,North,0,0.0,0.0,41,0.00,,,0.00,WUHU216HW,2013-05-07 02:37:00,
2013-05-06 19:42:00,75.2,50.0,29.47,North,0,0.0,0.0,41,0.00,,,0.00,WUHU216HW,2013-05-07 02:42:00,
2013-05-06 19:47:00,74.9,50.2,29.47,North,0,0.0,0.0,42,0.00,,,0.00,WUHU216HW,2013-05-07 02:47:00,
2013-05-06 19:52:00,74.5,49.9,29.47,North,0,0.0,0.0,42,0.00,,,0.00,WUHU216HW,2013-05-07 02:52:00,
2013-05-06 19:57:00,74.2,50.1,29.47,North,0,0.0,0.0,43,0.00,,,0.00,WUHU216HW,2013-05-07 02:57:00,
2013-05-06 20:02:00,73.4,49.5,29.47,North,0,0.0,0.0,43,0.00,,,0.00,WUHU216HW,2013-05-07 03:02:00,
2013-05-06 20:07:00,73.1,49.8,29.47,North,0,0.0,0.0,44,0.00,,,0.00,WUHU216HW,2013-05-07 03:07:00,
2013-05-06 20:12:00,72.5,49.9,29.47,North,0,0.0,0.0,45,0.00,,,0.00,WUHU216HW,2013-05-07 03:12:00,
2013-05-06 20:17:00,72.0,50.0,29.48,North,0,0.0,0.0,46,0.00,,,0.00,WUHU216HW,2013-05-07 03:17:00,
2013-05-06 20:22:00,71.3,50.0,29.48,North,0,0.0,0.0,47,0.00,,,0.00,WUHU216HW,2013-05-07 03:22:00,
2013-05-06 20:27:00,70.7,49.4,29.48,North,0,0.0,0.0,47,0.00,,,0.00,WUHU216HW,2013-05-07 03:27:00,
2013-05-06 20:32:00,70.4,49.2,29.48,North,0,0.0,0.0,47,0.00,,,0.00,WUHU216HW,2013-05-07 03:32:00,
2013-05-06 20:37:00,70.2,49.0,29.48,North,0,0.0,0.0,47,0.00,,,0.00,WUHU216HW,2013-05-07 03:37:00,
2013-05-06 20:42:00,70.2,49.0,29.48,North,0,0.0,0.0,47,0.00,,,0.00,WUHU216HW,2013-05-07 03:42:00,
2013-05-06 20:47:00,69.8,48.6,29.48,North,0,0.0,0.0,47,0.00,,,0.00,WUHU216HW,2013-05-07 03:47:00,
2013-05-06 20:52:00,69.5,48.3,29.49,North,0,0.0,0.0,47,0.00,,,0.00,WUHU216HW,2013-05-07 03:52:00,
2013-05-06 20:57:00,69.1,48.0,29.49,North,0,0.0,0.0,47,0.00,,,0.00,WUHU216HW,2013-05-07 03:57:00,
2013-05-06 21:01:00,68.8,47.6,29.49,North,0,0.0,0.0,47,0.00,,,0.00,WUHU216HW,2013-05-07 04:01:00,
2013-05-06 21:02:00,68.8,47.6,29.49,North,0,0.0,0.0,47,0.00,,,0.00,WUHU216HW,2013-05-07 04:02:00,
2013-05-06 21:07:00,68.4,47.4,29.49,North,0,0.0,0.0,47,0.00,,,0.00,WUHU216HW,2013-05-07 04:07:00,
2013-05-06 21:12:00,68.0,47.6,29.49,North,0,0.0,0.0,48,0.00,,,0.00,WUHU216HW,2013-05-07 04:12:00,
2013-05-06 21:17:00,67.9,47.4,29.50,North,0,0.0,0.0,48,0.00,,,0.00,WUHU216HW,2013-05-07 04:17:00,
2013-05-06 21:22:00,67.5,47.1,29.50,North,0,0.0,0.0,48,0.00,,,0.00,WUHU216HW,2013-05-07 04:22:00,
2013-05-06 21:27:00,67.1,47.3,29.50,North,0,0.0,0.0,49,0.00,,,0.00,WUHU216HW,2013-05-07 04:27:00,
2013-05-06 21:32:00,66.6,47.5,29.50,North,0,0.0,0.0,50,0.00,,,0.00,WUHU216HW,2013-05-07 04:32:00,
2013-05-06 21:37:00,66.4,47.4,29.50,North,0,0.0,0.0,50,0.00,,,0.00,WUHU216HW,2013-05-07 04:37:00,
2013-05-06 21:42:00,66.1,47.0,29.50,North,0,0.0,0.0,50,0.00,,,0.00,WUHU216HW,2013-05-07 04:42:00,
2013-05-06 21:47:00,65.9,46.8,29.50,North,0,0.0,0.0,50,0.00,,,0.00,WUHU216HW,2013-05-07 04:47:00,
2013-05-06 21:52:00,65.7,46.6,29.50,North,0,0.0,0.0,50,0.00,,,0.00,WUHU216HW,2013-05-07 04:52:00,
2013-05-06 21:57:00,65.5,46.9,29.50,North,0,0.0,0.0,51,0.00,,,0.00,WUHU216HW,2013-05-07 04:57:00,
2013-05-06 22:02:00,65.2,46.5,29.50,North,0,0.0,0.0,51,0.00,,,0.00,WUHU216HW,2013-05-07 05:02:00,
2013-05-06 22:07:00,65.0,46.4,29.50,North,0,0.0,0.0,51,0.00,,,0.00,WUHU216HW,2013-05-07 05:07:00,
2013-05-06 22:12:00,64.6,46.5,29.51,North,0,0.0,0.0,52,0.00,,,0.00,WUHU216HW,2013-05-07 05:12:00,
2013-05-06 22:17:00,64.3,47.2,29.51,North,0,0.0,0.0,54,0.00,,,0.00,WUHU216HW,2013-05-07 05:17:00,
2013-05-06 22:22:00,64.1,47.0,29.51,North,0,0.0,0.0,54,0.00,,,0.00,WUHU216HW,2013-05-07 05:22:00,
2013-05-06 22:27:00,63.7,46.6,29.51,North,0,0.0,0.0,54,0.00,,,0.00,WUHU216HW,2013-05-07 05:27:00,
2013-05-06 22:32:00,63.5,46.5,29.51,North,0,0.0,0.0,54,0.00,,,0.00,WUHU216HW,2013-05-07 05:32:00,
2013-05-06 22:37:00,63.4,46.4,29.51,North,0,0.0,0.0,54,0.00,,,0.00,WUHU216HW,2013-05-07 05:37:00,
2013-05-06 22:42:00,63.0,46.0,29.51,North,0,0.0,0.0,54,0.00,,,0.00,WUHU216HW,2013-05-07 05:42:00,
2013-05-06 22:47:00,62.8,46.4,29.51,North,0,0.0,0.0,55,0.00,,,0.00,WUHU216HW,2013-05-07 05:47:00,
2013-05-06 22:52:00,62.5,46.0,29.51,North,0,0.0,0.0,55,0.00,,,0.00,WUHU216HW,2013-05-07 05:52:00,
2013-05-06 22:57:00,62.3,46.8,29.51,North,0,0.0,0.0,57,0.00,,,0.00,WUHU216HW,2013-05-07 05:57:00,
2013-05-06 23:02:00,62.1,46.2,29.51,North,0,0.0,0.0,56,0.00,,,0.00,WUHU216HW,2013-05-07 06:02:00,
2013-05-06 23:07:00,61.9,46.0,29.51,North,0,0.0,0.0,56,0.00,,,0.00,WUHU216HW,2013-05-07 06:07:00,
2013-05-06 23:12:00,61.6,46.6,29.52,North,0,0.0,0.0,58,0.00,,,0.00,WUHU216HW,2013-05-07 06:12:00,
2013-05-06 23:17:00,61.4,47.0,29.52,North,0,0.0,0.0,59,0.00,,,0.00,WUHU216HW,2013-05-07 06:17:00,
2013-05-06 23:22:00,61.0,46.6,29.52,North,0,0.0,0.0,59,0.00,,,0.00,WUHU216HW,2013-05-07 06:22:00,
2013-05-06 23:27:00,60.7,46.8,29.52,North,0,0.0,0.0,60,0.00,,,0.00,WUHU216HW,2013-05-07 06:27:00,
2013-05-06 23:32:00,60.5,46.6,29.52,North,0,0.0,0.0,60,0.00,,,0.00,WUHU216HW,2013-05-07 06:32:00,
2013-05-06 23:37:00,60.3,47.3,29.52,North,0,0.0,0.0,62,0.00,,,0.00,WUHU216HW,2013-05-07 06:37:00,
2013-05-06 23:42:00,60.1,47.1,29.52,North,0,0.0,0.0,62,0.00,,,0.00,WUHU216HW,2013-05-07 06:42:00,
2013-05-06 23:47:00,60.1,47.1,29.52,North,0,0.0,0.0,62,0.00,,,0.00,WUHU216HW,2013-05-07 06:47:00,
2013-05-06 23:52:00,59.9,46.9,29.52,North,0,0.0,0.0,62,0.00,,,0.00,WUHU216HW,2013-05-07 06:52:00,
2013-05-06 23:57:00,59.8,46.7,29.52,North,0,0.0,0.0,62,0.00,,,0.00,WUHU216HW,2013-05-07 06:57:00,